User: anonymous   Login
Location: S�tio Afonso Gruber
(26.1760°S, 49.5250°W)
Time: 14:06:56
(UTC+00:00)
Language:

BEESAT 3 - Orbit

View from above orbital plane
View from above orbital plane
View from above satellite
View from above satellite

Ground track
Ground track

The orbit data is extracted from the following two-line orbital elements,

1 39134U 13015E   22342.04528251  .00032343  00000-0  93827-3 0  9997
2 39134  64.8583 209.8923 0029894 254.6399 105.1432 15.34939388533818
Epoch (UTC): 08 December 2022 01:05:12
Eccentricity: 0.0029894
inclination: 64.8583°
perigee height: 440 km
apogee height: 481 km
right ascension of ascending node: 209.8923°
argument of perigee: 254.6399°
revolutions per day: 15.34939388
mean anomaly at epoch: 105.1432°
orbit number at epoch: 53381

The dashed part of the orbit path shows where the satellite is in the earth's shadow,  

DLR